Home   Weather   Enugu   Past weeks

Flag for Nigeria Past Weather in Enugu, Nigeria — Yesterday and Last 2 Weeks

72 °F

Passing clouds.

Feels Like: 67 °F
Forecast: 74 / 87 °F
Wind: 2 mph from Southwest

Location: Malabo/Fernando Poo

Current Time: Oct 27, 2016 at 4:13:53 AM

Latest Report: Oct 27, 2016 at 3:00 AM

Visibility: N/A

Pressure: 29.80 "Hg

Humidity: 94%

Dew Point: 70 °F

Location of EnuguLocation

Past Weather in Enugu — Graph


Enugu Temperature Yesterday

Maximum temperature yesterday: 79 °F (at 2:00 AM)
Minimum temperature yesterday: 73 °F (at 10:00 AM)
Average temperature yesterday: 77 °F

High & Low Weather Summary for the Past Weeks

High86 °F (Oct 12, 11:00 AM)100% (Oct 22, 7:00 AM)29.98 "Hg (Oct 22, 7:00 AM)
Low72 °F (Oct 22, 3:00 AM)66% (Oct 17, 2:00 PM)29.74 "Hg (Oct 24, 4:00 PM)
Average79 °F86%29.87 "Hg
* Reported Oct 12 2:00 AM — Oct 27 2:00 AM, Enugu, Weather by CustomWeather, © 2016

Note: Actual official high and low records may vary slightly from our data, if they occured in-between our weather recording intervals... More about our weather records


Enugu Weather History for the Previous 24 Hours

Scroll right to see more
Time TempWeatherWind HumidityBarometerVisibility
2:00 AM
Thu, Oct 27
72 °FPassing clouds.No wind94%29.83 "HgN/A
1:00 AM72 °FPassing clouds.3 mph94%29.83 "HgN/A
12:00 AM73 °FPassing clouds.2 mph89%29.83 "HgN/A
10:00 PM
Wed, Oct 26
73 °FPassing clouds.5 mph94%29.83 "HgN/A
7:00 PM77 °FPassing clouds.1 mph89%29.77 "HgN/A
6:00 PM77 °FPartly sunny.1 mph89%29.77 "HgN/A
5:00 PM79 °FPartly sunny.No wind89%29.77 "HgN/A
4:00 PM79 °FLow clouds.3 mph84%29.77 "HgN/A
3:00 PM79 °FLow clouds.2 mph84%29.77 "HgN/A
2:00 PM77 °FThunderstorms. More clouds than sun.2 mph89%29.80 "HgN/A
1:00 PM77 °FThunderstorms. More clouds than sun.6 mph89%29.83 "Hg5 mi
12:00 PM75 °FThunderstorms. More clouds than sun.3 mph94%29.83 "Hg5 mi
11:00 AM73 °FThunderstorms. More clouds than sun.1 mph94%29.86 "Hg5 mi
10:00 AM73 °FThunderstorms. More clouds than sun.5 mph94%29.86 "Hg5 mi
8:00 AM79 °FThunderstorms. Broken clouds.7 mph84%29.83 "HgN/A
7:00 AM77 °FThunderstorms. Partly sunny.9 mph89%29.77 "HgN/A
6:00 AM75 °FThunderstorms. Passing clouds.5 mph94%29.77 "HgN/A
5:00 AM77 °FPassing clouds.6 mph89%29.77 "HgN/A
4:00 AM77 °FThunderstorms. Passing clouds.6 mph94%29.77 "HgN/A
Weather by CustomWeather, © 2016

See weather overviewHow to use our weather pages